Flag for Norway Weather past 2 weeks in Longyearbyen, Svalbard, Norway

Now
37 °F

Sprinkles. Broken clouds.


Feels Like: 26 °F
Forecast: 37 / 40 °F
Wind: 25 mph from Southwest

Location: Svalbard Lufthavn

Current Time: Aug 29, 2014 at 7:16:32 AM

Latest Report: Aug 29, 2014 at 6:50 AM


Visibility: N/A

Pressure: 29.74 "Hg

Humidity: 81%

Dew point: 32 °F

Location of LongyearbyenLocation

Historic Weather in Longyearbyen — Graph

°F

Longyearbyen temperature yesterday

Maximum temperature yesterday: 48 °F (at 8:50 AM)
Minimum temperature yesterday: 41 °F (at 12:50 AM)
Average temperature yesterday: 45 °F

Past Weeks' High & Low Weather Summary

 TemperatureHumidityPressure
High54 °F (Aug 22, 4:50 PM)93% (Aug 21, 4:50 AM)30.09 "Hg (Aug 21, 4:50 AM)
Low34 °F (Aug 27, 4:50 AM)41% (Aug 22, 4:50 PM)29.71 "Hg (Aug 22, 2:50 PM)
Average43 °F71%29.86 "Hg
* Reported Aug 14 5:50 AM — Aug 29 5:50 AM, Longyearbyen, Weather by CustomWeather, © 2014

Note: Actual official high and low records may vary slightly from our data, if they occured in-between our weather recording intervals... More about our weather records

Advertising

Longyearbyen weather history for previous 24 hours

 ConditionsComfort  
Time TempWeatherWind HumidityBarometerVisibility
5:50 AM
Aug 29
37 °FBroken clouds.30 mph81%29.74 "HgN/A
4:50 AM39 °FSprinkles. Broken clouds.24 mph81%29.71 "HgN/A
3:50 AM41 °FSprinkles. Partly cloudy.21 mph76%29.71 "HgN/A
2:50 AM39 °FLight rain. Partly cloudy.18 mph87%29.71 "HgN/A
1:50 AM41 °FSprinkles. Partly cloudy.14 mph70%29.71 "HgN/A
12:50 AM41 °FSprinkles. Passing clouds.14 mph76%29.71 "HgN/A
11:50 PM
Aug 28
43 °FSprinkles. Partly sunny.15 mph66%29.71 "HgN/A
10:50 PM43 °FSprinkles. Partly sunny.14 mph71%29.71 "HgN/A
8:50 PM43 °FScattered showers. Partly sunny.12 mph66%29.71 "HgN/A
7:50 PM45 °FPartly sunny.8 mph71%29.71 "HgN/A
6:50 PM45 °FPartly sunny.10 mph76%29.71 "HgN/A
6:20 PM45 °FPartly sunny.7 mph81%29.71 "HgN/A
4:50 PM46 °FLight rain. Partly sunny.15 mph76%29.71 "HgN/A
3:50 PM48 °FScattered showers. Partly sunny.5 mph66%29.71 "HgN/A
2:50 PM48 °FBroken clouds.5 mph71%29.71 "HgN/A
1:50 PM46 °FLight rain. Broken clouds.8 mph76%29.71 "HgN/A
12:50 PM46 °FLight rain. Broken clouds.8 mph76%29.71 "HgN/A
11:50 AM46 °FLight rain. Broken clouds.3 mph76%29.74 "HgN/A
10:50 AM46 °FLight rain. Broken clouds.14 mph76%29.74 "HgN/A
9:50 AM48 °FLight rain. Mostly cloudy.9 mph71%29.74 "HgN/A
8:50 AM48 °FBroken clouds.13 mph71%29.74 "HgN/A
7:50 AM45 °FLight rain. Broken clouds.16 mph81%29.74 "HgN/A
Weather by CustomWeather, © 2014

See weather overviewHow to use our weather pages